Date String (YYYY-MM-DD hh:mm:ss) UTC,Instrument flags,absolute air pressure of the measurement (hPa),sample flow rate (lpm),inlet stack bypass flow (lpm),air temperature of the measurement (°C),ambient temperature measured by the external sensor (°C),aerosol sample conditioner tube jacket temperature (°C),OPC LED temperature (°C),internal box temperature (°C),relative humidity of the measurement (%),span deviation,mass concentration of particles derived from Lorenz-Mie calculation of OPC scattering (μg/m³),mass concentration of particles derived from Lorenz-Mie calculation of OPC scattering (μg/m³),mass concentration of particles derived from Lorenz-Mie calculation of OPC scattering (μg/m³)
DateTimeUTC,F1_M11,P_M11,Q1_M11,Q2_M11,T1_M11,T2_M11,T3_M11,T4_M11,T5_M11,U1_M11,ZSPAN_M11,X0_M11,X2_M11,X1_M11
2023-07-25 18:00:00,SystemResetWarning,0834.3,5.00,000.00,029.0,027.4,000.0,037.3,030.7,26.7,0000.0,0012.41,0004.53,0003.44
2023-07-25 18:01:00,SystemResetWarning,0834.3,4.99,000.00,029.0,026.5,000.0,037.2,030.6,25.6,0000.0,0012.14,0004.49,0003.43
2023-07-25 18:02:00,SystemResetWarning,0834.4,5.01,000.00,028.9,025.3,000.0,037.1,030.4,24.7,0000.0,0012.50,0004.46,0003.43
2023-07-25 18:03:00,SystemResetWarning,0834.2,5.02,000.00,028.9,025.5,000.0,037.0,030.3,21.6,0000.0,0012.33,0004.47,0003.43
2023-07-25 18:04:00,SystemResetWarning,0834.3,4.99,000.00,028.8,025.8,000.0,037.1,030.3,22.3,0000.0,0012.22,0004.40,0003.43
2023-07-25 18:05:00,SystemResetWarning,0834.2,4.99,000.00,028.8,026.3,000.0,037.1,030.3,22.0,0000.0,0013.39,0004.39,0003.41
2023-07-25 18:06:00,SystemResetWarning,0834.2,5.00,000.00,028.9,026.7,000.0,037.2,030.4,22.3,0000.0,0013.00,0004.43,0003.39
2023-07-25 18:07:00,SystemResetWarning,0834.2,5.00,000.00,028.9,027.0,000.0,037.2,030.5,23.8,0000.0,0012.81,0004.41,0003.35
2023-07-25 18:08:00,SystemResetWarning,0834.2,5.00,000.00,028.9,027.3,000.0,037.2,030.6,26.3,0000.0,0013.16,0004.38,0003.32
2023-07-25 18:09:00,SystemResetWarning,0834.3,4.98,000.00,029.0,027.2,000.0,037.2,030.6,25.8,0000.0,0013.26,0004.35,0003.31
2023-07-25 18:10:00,SystemResetWarning,0834.4,5.00,000.00,028.9,025.8,000.0,037.1,030.4,24.8,0000.0,0013.21,0004.35,0003.31
2023-07-25 18:11:00,SystemResetWarning,0834.3,5.01,000.00,028.9,025.2,000.0,037.0,030.3,26.8,0000.0,0013.53,0004.41,0003.33
2023-07-25 18:12:00,SystemResetWarning,0834.3,5.00,000.00,028.8,025.6,000.0,037.0,030.2,24.0,0000.0,0013.66,0004.45,0003.37
2023-07-25 18:13:00,SystemResetWarning,0834.2,4.99,000.00,028.8,026.0,000.0,037.1,030.2,24.3,0000.0,0013.32,0004.47,0003.39
2023-07-25 18:14:00,SystemResetWarning,0834.2,5.00,000.00,028.8,026.4,000.0,037.1,030.3,23.4,0000.0,0012.91,0004.45,0003.40
2023-07-25 18:15:00,SystemResetWarning,0834.2,5.01,000.00,028.8,026.8,000.0,037.1,030.4,22.6,0000.0,0013.32,0004.50,0003.42
2023-07-25 18:16:00,SystemResetWarning,0834.2,5.00,000.00,028.9,027.2,000.0,037.2,030.5,21.7,0000.0,0013.66,0004.53,0003.44
2023-07-25 18:17:00,SystemResetWarning,0834.0,4.99,000.00,028.9,027.4,000.0,037.2,030.6,21.6,0000.0,0013.73,0004.49,0003.47
2023-07-25 18:18:00,SystemResetWarning,0834.0,4.99,000.00,028.9,026.6,000.0,037.1,030.5,21.3,0000.0,0013.96,0004.47,0003.50
2023-07-25 18:19:00,SystemResetWarning,0834.0,5.00,000.00,028.9,025.3,000.0,037.0,030.3,21.5,0000.0,0013.48,0004.41,0003.49
2023-07-25 18:20:00,SystemResetWarning,0834.1,5.01,000.00,028.8,025.4,000.0,037.0,030.3,21.3,0000.0,0012.95,0004.34,0003.47
2023-07-25 18:21:00,SystemResetWarning,0834.1,5.01,000.00,028.8,025.7,000.0,037.0,030.2,22.2,0000.0,0012.56,0004.28,0003.45
2023-07-25 18:22:00,SystemResetWarning,0834.1,4.99,000.00,028.8,026.1,000.0,037.0,030.3,22.6,0000.0,0011.35,0004.20,0003.42
2023-07-25 18:23:00,SystemResetWarning,0834.1,5.00,000.00,028.8,026.5,000.0,037.1,030.3,23.7,0000.0,0011.08,0004.17,0003.39
2023-07-25 18:24:00,SystemResetWarning,0834.1,5.01,000.00,028.8,026.9,000.0,037.1,030.4,22.6,0000.0,0010.65,0004.19,0003.39
2023-07-25 18:25:00,SystemResetWarning,0834.1,4.99,000.00,028.9,027.3,000.0,037.2,030.5,21.8,0000.0,0010.92,0004.16,0003.39
2023-07-25 18:26:00,SystemResetWarning,0834.1,4.99,000.00,028.9,027.2,000.0,037.1,030.6,22.1,0000.0,0010.78,0004.17,0003.38
2023-07-25 18:27:00,SystemResetWarning,0834.1,5.00,000.00,028.9,025.7,000.0,037.0,030.3,21.3,0000.0,0010.12,0004.22,0003.36
2023-07-25 18:28:00,SystemResetWarning,0834.0,5.00,000.00,028.8,025.0,000.0,036.9,030.1,22.3,0000.0,0009.42,0004.19,0003.32
2023-07-25 18:29:00,SystemResetWarning,0833.9,5.01,000.00,028.7,025.3,000.0,036.9,030.1,22.4,0000.0,0009.06,0004.19,0003.31
2023-07-25 18:30:00,SystemResetWarning,0833.8,5.00,000.00,028.7,025.7,000.0,037.0,030.1,22.7,0000.0,0009.20,0004.24,0003.30
2023-07-25 18:31:00,SystemResetWarning,0833.9,4.99,000.00,028.7,026.2,000.0,037.0,030.2,22.2,0000.0,0009.62,0004.32,0003.30
2023-07-25 18:32:00,SystemResetWarning,0834.0,5.00,000.00,028.7,026.6,000.0,037.0,030.3,21.5,0000.0,0010.38,0004.39,0003.30
2023-07-25 18:33:00,SystemResetWarning,0834.0,5.01,000.00,028.8,027.0,000.0,037.1,030.4,22.0,0000.0,0011.24,0004.45,0003.30
2023-07-25 18:34:00,SystemResetWarning,0834.1,5.00,000.00,028.8,027.3,000.0,037.1,030.5,21.8,0000.0,0011.31,0004.45,0003.28
2023-07-25 18:35:00,SystemResetWarning,0834.1,4.99,000.00,028.9,027.3,000.0,037.1,030.5,21.7,0000.0,0011.21,0004.40,0003.24
2023-07-25 18:36:00,SystemResetWarning,0834.0,4.99,000.00,028.8,025.8,000.0,037.0,030.3,21.7,0000.0,0011.56,0004.38,0003.19
2023-07-25 18:37:00,SystemResetWarning,0834.0,5.00,000.00,028.8,025.0,000.0,036.9,030.2,21.7,0000.0,0011.43,0004.37,0003.16
2023-07-25 18:38:00,SystemResetWarning,0834.0,5.02,000.00,028.7,025.3,000.0,036.9,030.1,21.6,0000.0,0011.10,0004.30,0003.13
2023-07-25 18:39:00,SystemResetWarning,0834.0,4.99,000.00,028.7,025.7,000.0,036.9,030.1,22.4,0000.0,0011.01,0004.31,0003.13
2023-07-25 18:40:00,SystemResetWarning,0834.0,5.00,000.00,028.7,026.1,000.0,037.0,030.2,22.4,0000.0,0011.16,0004.32,0003.13
2023-07-25 18:41:00,SystemResetWarning,0834.0,5.00,000.00,028.7,026.6,000.0,037.0,030.3,23.3,0000.0,0011.96,0004.31,0003.13
2023-07-25 18:42:00,SystemResetWarning,0834.0,5.01,000.00,028.7,027.0,000.0,037.0,030.4,23.1,0000.0,0011.95,0004.27,0003.13
2023-07-25 18:43:00,SystemResetWarning,0834.0,5.00,000.00,028.8,027.3,000.0,037.1,030.5,23.6,0000.0,0011.85,0004.24,0003.14
2023-07-25 18:44:00,SystemResetWarning,0834.1,4.99,000.00,028.8,027.3,000.0,037.1,030.5,22.2,0000.0,0011.58,0004.20,0003.13
2023-07-25 18:45:00,SystemResetWarning,0834.1,4.99,000.00,028.8,025.9,000.0,037.0,030.3,23.4,0000.0,0011.36,0004.20,0003.13
2023-07-25 18:46:00,SystemResetWarning,0834.0,5.00,000.00,028.7,024.9,000.0,036.9,030.2,22.9,0000.0,0011.94,0004.18,0003.13
2023-07-25 18:47:00,SystemResetWarning,0834.0,5.01,000.00,028.7,025.2,000.0,036.9,030.1,21.4,0000.0,0011.73,0004.18,0003.13
2023-07-25 18:48:00,SystemResetWarning,0834.0,5.00,000.00,028.6,025.6,000.0,036.9,030.1,21.7,0000.0,0011.57,0004.15,0003.13
2023-07-25 18:49:00,SystemResetWarning,0834.0,4.99,000.00,028.6,026.0,000.0,036.9,030.1,22.4,0000.0,0012.37,0004.15,0003.13
2023-07-25 18:50:00,SystemResetWarning,0834.0,5.00,000.00,028.7,026.5,000.0,037.0,030.2,23.5,0000.0,0012.45,0004.07,0003.13
2023-07-25 18:51:00,SystemResetWarning,0834.0,5.01,000.00,028.7,026.9,000.0,037.0,030.4,22.1,0000.0,0012.33,0004.06,0003.13
2023-07-25 18:52:00,SystemResetWarning,0834.0,5.00,000.00,028.8,027.2,000.0,037.0,030.5,20.8,0000.0,0011.82,0004.06,0003.13
2023-07-25 18:53:00,SystemResetWarning,0834.0,4.99,000.00,028.8,027.3,000.0,037.0,030.5,21.1,0000.0,0011.85,0004.07,0003.13
2023-07-25 18:54:00,SystemResetWarning,0834.0,4.98,000.00,028.8,026.0,000.0,037.0,030.2,22.4,0000.0,0011.45,0004.07,0003.12
2023-07-25 18:55:00,SystemResetWarning,0834.0,5.01,000.00,028.7,025.0,000.0,036.9,030.0,22.5,0000.0,0010.84,0004.06,0003.12
2023-07-25 18:56:00,SystemResetWarning,0834.0,5.01,000.00,028.7,025.3,000.0,036.8,030.0,23.3,0000.0,0010.95,0004.06,0003.12
2023-07-25 18:57:00,SystemResetWarning,0834.1,5.00,000.00,028.6,025.7,000.0,036.9,030.0,23.0,0000.0,0010.61,0004.05,0003.11
2023-07-25 18:58:00,SystemResetWarning,0834.1,5.00,000.00,028.6,026.1,000.0,036.9,030.1,23.3,0000.0,0010.32,0004.07,0003.10
2023-07-25 18:59:00,SystemResetWarning,0834.1,5.00,000.00,028.7,026.6,000.0,037.0,030.2,22.3,0000.0,0010.34,0004.06,0003.10
